Location: Washington
(38.8950°N, 77.0370°W)
Time: 11:13:30
(UTC-05:00)

ISS - All Passes

Search period start: 22 January 2017 00:00
Search period end: 01 February 2017 00:00
Orbit: 399 x 410 km, 51.6° (Epoch: 23 January)

Date Brightness Start Highest point End Pass type
(mag) Time Alt. Az. Time Alt. Az. Time Alt. Az.
22 Jan - 00:06:52 10° NNW 00:07:44 11° NNW 00:08:36 10° N night (unlit)
22 Jan - 03:20:02 10° NNW 03:22:49 26° NNE 03:25:37 10° E night (unlit)
22 Jan - 04:56:20 10° WNW 04:59:21 35° SW 05:02:20 10° SSE visible
22 Jan - 20:00:35 10° SSE 20:02:05 13° SE 20:03:35 10° E night (unlit)
22 Jan - 21:34:58 10° WSW 21:38:11 61° NW 21:41:25 10° NE night (unlit)
22 Jan - 23:13:26 10° NW 23:15:12 14° NNW 23:16:58 10° NNE night (unlit)
23 Jan - 02:28:08 10° NNW 02:30:25 17° NNE 02:32:41 10° ENE night (unlit)
23 Jan - 04:03:58 10° NW 04:07:13 75° SW 04:10:26 10° SE night (unlit)
23 Jan - 20:42:45 10° SW 20:45:58 66° SE 20:49:12 10° ENE night (unlit)
23 Jan - 22:20:20 10° WNW 22:22:44 19° NNW 22:25:07 10° NNE night (unlit)
24 Jan - 01:36:18 10° NNW 01:37:55 13° NNE 01:39:32 10° NE night (unlit)
24 Jan - 03:11:47 10° NW 03:14:59 54° NE 03:18:10 10° ESE night (unlit)
24 Jan - 04:49:19 10° W 04:51:07 14° SW 04:52:55 10° SSW night (unlit)
24 Jan - 19:50:53 10° SSW 19:53:50 31° SE 19:56:46 10° ENE visible
24 Jan - 21:27:26 10° W 21:30:18 28° NNW 21:33:10 10° NNE night (unlit)
24 Jan - 23:07:18 10° NNW 23:07:38 10° N 23:07:59 10° N night (unlit)
25 Jan - 00:44:43 10° N 00:45:21 10° N 00:46:00 10° NNE night (unlit)
25 Jan - 02:19:43 10° NW 02:22:39 30° NNE 02:25:34 10° E night (unlit)
25 Jan - 03:56:15 10° WNW 03:59:04 27° SW 04:01:52 10° SSE night (unlit)
25 Jan - 18:59:39 10° S 19:01:45 16° SE 19:03:51 10° E visible
25 Jan - 20:34:46 10° WSW 20:37:56 48° NW 20:41:08 10° NE visible
25 Jan - 22:13:33 10° NW 22:15:03 12° NNW 22:16:32 10° NNE night (unlit)
26 Jan - 01:27:44 10° NNW 01:30:14 20° NNE 01:32:42 10° ENE night (unlit)
26 Jan - 03:03:43 10° WNW 03:06:56 57° SW 03:10:06 10° SE night (unlit)
26 Jan - 19:42:24 10° SW 19:45:40 86° SE 19:48:55 10° NE visible
26 Jan - 21:20:18 10° WNW 21:22:30 17° NNW 21:24:42 10° NNE night (unlit)
27 Jan - 00:35:50 10° NNW 00:37:43 14° NNE 00:39:35 10° NE night (unlit)
27 Jan - 02:11:27 10° NW 02:14:41 69° NE 02:17:54 10° ESE night (unlit)
27 Jan - 03:49:47 10° WSW 03:50:44 11° SW 03:51:39 10° SW night (unlit)
27 Jan - 18:50:22 10° SSW 18:53:27 40° SE 18:56:32 10° ENE visible
27 Jan - 20:27:17 10° W 20:30:01 24° NNW 20:32:45 10° NNE visible
27 Jan - 23:44:03 10° N 23:45:08 11° NNE 23:46:12 10° NNE night (unlit)
28 Jan - 01:19:18 10° NW 01:22:21 36° NNE 01:25:23 10° ESE night (unlit)
28 Jan - 02:56:06 10° W 02:58:40 22° SW 03:01:13 10° S night (unlit)
28 Jan - 17:58:48 10° S 18:01:18 20° SE 18:03:48 10° E visible
28 Jan - 19:34:30 10° WSW 19:37:35 39° NNW 19:40:42 10° NE visible
28 Jan - 21:13:35 10° NW 21:14:47 11° NNW 21:15:58 10° N night (unlit)
29 Jan - 00:27:15 10° NNW 00:29:55 23° NNE 00:32:34 10° E night (unlit)
29 Jan - 02:03:24 10° WNW 02:06:31 43° SW 02:09:36 10° SSE night (unlit)
29 Jan - 17:08:43 10° SE 17:09:13 10° SE 17:09:43 10° ESE daylight
29 Jan - 18:41:59 10° SW 18:45:14 75° NW 18:48:30 10° NE visible
29 Jan - 20:20:12 10° WNW 20:22:11 15° NNW 20:24:10 10° NNE visible
29 Jan - 23:35:16 10° NNW 23:37:23 16° NNE 23:39:30 10° ENE night (unlit)
30 Jan - 01:11:00 10° NW 01:14:15 88° NNE 01:17:29 10° SE night (unlit)
30 Jan - 17:49:46 10° SW 17:52:58 53° SE 17:56:10 10° ENE visible
30 Jan - 19:27:03 10° WNW 19:29:38 21° NNW 19:32:12 10° NNE visible
30 Jan - 22:43:23 10° N 22:44:47 12° NNE 22:46:10 10° NE night (unlit)
31 Jan - 00:18:46 10° NW 00:21:55 44° NE 00:25:02 10° ESE night (unlit)
31 Jan - 01:55:56 10° W 01:58:08 17° SW 02:00:20 10° S night (unlit)
31 Jan - 16:57:59 10° SSW 17:00:45 26° SE 17:03:32 10° ENE daylight
31 Jan - 18:34:09 10° W 18:37:08 32° NNW 18:40:08 10° NE visible
31 Jan - 20:13:33 10° NNW 20:14:25 11° NNW 20:15:15 10° N visible
31 Jan - 23:26:39 10° NNW 23:29:29 26° NNE 23:32:16 10° E night (unlit)
